| time (UTC) | temp F | wind direction | speed MPH | gust MPH | rain 1hr in | rain 24hr in | rain mn in | humidity % | barometer mb |
| 20260503011704 | 76 | 191 | 4.0 | 4.0 | 0.00 | 0.00 | 0.00 | 59 | 1011.3 |
| 20260503011204 | 77 | 195 | 2.0 | 4.0 | 0.00 | 0.00 | 0.00 | 59 | 1011.2 |
| 20260503010704 | 77 | 175 | 0.0 | 2.0 | 0.00 | 0.00 | 0.00 | 59 | 1011.1 |
| 20260503010204 | 77 | 258 | 0.0 | 1.0 | 0.00 | 0.00 | 0.00 | 58 | 1011.1 |
| 20260503005704 | 76 | 286 | 0.0 | 1.0 | 0.00 | 0.00 | 0.00 | 57 | 1011.1 |
| 20260503005204 | 76 | 286 | 0.0 | 1.0 | 0.00 | 0.00 | 0.00 | 57 | 1011.1 |
| 20260503004704 | 76 | 286 | 0.0 | 1.0 | 0.00 | 0.00 | 0.00 | 57 | 1011.2 |
| 20260503004204 | 76 | 286 | 0.0 | 3.0 | 0.00 | 0.00 | 0.00 | 59 | 1011.2 |
| 20260503003704 | 75 | 286 | 0.0 | 3.0 | 0.00 | 0.00 | 0.00 | 57 | 1011.2 |
| 20260503003204 | 75 | 285 | 3.0 | 4.0 | 0.00 | 0.00 | 0.00 | 57 | 1011.2 |
| 20260503002704 | 75 | 304 | 1.0 | 4.0 | 0.00 | 0.00 | 0.00 | 58 | 1011.2 |
| 20260503002204 | 75 | 239 | 2.0 | 4.0 | 0.00 | 0.00 | 0.00 | 57 | 1011.4 |
| 20260503001704 | 75 | 245 | 4.0 | 6.0 | 0.00 | 0.00 | 0.00 | 59 | 1011.5 |
| 20260503001109 | 75 | 309 | 1.0 | 6.0 | 0.00 | 0.00 | 0.00 | 59 | 1011.4 |
| 20260503000505 | 75 | 245 | 3.0 | 5.0 | 0.00 | 0.00 | 0.00 | 59 | 1011.4 |
| 20260503000004 | 75 | 244 | 1.0 | 7.0 | 0.00 | 0.00 | 0.00 | 59 | 1011.5 |
| 20260502235504 | 75 | 242 | 5.0 | 7.0 | 0.00 | 0.00 | 0.00 | 58 | 1011.5 |
| 20260502235004 | 75 | 204 | 6.0 | 6.0 | 0.00 | 0.00 | 0.00 | 59 | 1011.5 |
| 20260502234504 | 75 | 236 | 2.0 | 6.0 | 0.00 | 0.00 | 0.00 | 61 | 1011.5 |
| 20260502234004 | 74 | 225 | 4.0 | 5.0 | 0.00 | 0.00 | 0.00 | 61 | 1011.6 |
| 20260502233504 | 74 | 236 | 4.0 | 6.0 | 0.00 | 0.00 | 0.00 | 61 | 1011.6 |
| 20260502233004 | 74 | 232 | 4.0 | 6.0 | 0.00 | 0.00 | 0.00 | 59 | 1011.8 |
| 20260502232504 | 74 | 249 | 2.0 | 6.0 | 0.00 | 0.00 | 0.00 | 62 | 1011.8 |
| 20260502232004 | 74 | 292 | 2.0 | 7.0 | 0.00 | 0.00 | 0.00 | 62 | 1012.0 |
| 20260502231405 | 73 | 221 | 5.0 | 7.0 | 0.00 | 0.00 | 0.00 | 62 | 1012.1 |
| 20260502230904 | 73 | 273 | 6.0 | 6.0 | 0.00 | 0.00 | 0.00 | 65 | 1012.2 |
| 20260502230404 | 72 | 221 | 2.0 | 4.0 | 0.00 | 0.00 | 0.00 | 71 | 1012.3 |
| 20260502225904 | 72 | 195 | 1.0 | 3.0 | 0.00 | 0.00 | 0.00 | 66 | 1012.3 |
| 20260502225404 | 71 | 170 | 0.0 | 3.0 | 0.00 | 0.00 | 0.00 | 71 | 1012.5 |
| 20260502224904 | 71 | 213 | 1.0 | 5.0 | 0.00 | 0.00 | 0.00 | 76 | 1012.5 |
| 20260502224404 | 70 | 191 | 2.0 | 5.0 | 0.00 | 0.00 | 0.00 | 72 | 1012.5 |
| 20260502223704 | 70 | 196 | 3.0 | 3.0 | 0.00 | 0.00 | 0.00 | 70 | 1012.9 |
| 20260502223204 | 69 | 162 | 1.0 | 3.0 | 0.00 | 0.00 | 0.00 | 71 | 1013.0 |
| 20260502222704 | 69 | 144 | 1.0 | 2.0 | 0.00 | 0.00 | 0.00 | 70 | 1013.0 |
| 20260502222104 | 68 | 360 | 2.0 | 2.0 | 0.00 | 0.00 | 0.00 | 74 | 1013.1 |
| 20260502221604 | 67 | 130 | 0.0 | 2.0 | 0.00 | 0.00 | 0.00 | 72 | 1013.1 |
| 20260502221104 | 67 | 130 | 2.0 | 2.0 | 0.00 | 0.00 | 0.00 | 75 | 1013.2 |
| 20260502220304 | 67 | 130 | 0.0 | 2.0 | 0.00 | 0.00 | 0.00 | 75 | 1013.4 |
| 20260502215804 | 68 | 130 | 2.0 | 2.0 | 0.00 | 0.00 | 0.00 | 73 | 1013.5 |
| 20260502215104 | 67 | 360 | 0.0 | 3.0 | 0.00 | 0.00 | 0.00 | 71 | 1013.5 |
| 20260502214404 | 67 | 171 | 0.0 | 3.0 | 0.00 | 0.00 | 0.00 | 75 | 1013.5 |
| 20260502213904 | 66 | 173 | 1.0 | 2.0 | 0.00 | 0.00 | 0.00 | 74 | 1013.5 |
| 20260502213404 | 66 | 211 | 2.0 | 3.0 | 0.00 | 0.00 | 0.00 | 73 | 1013.6 |
| 20260502212904 | 65 | 211 | 1.0 | 3.0 | 0.00 | 0.00 | 0.00 | 74 | 1013.6 |
| 20260502212305 | 65 | 360 | 0.0 | 2.0 | 0.00 | 0.00 | 0.00 | 75 | 1013.6 |
| 20260502211804 | 64 | 360 | 1.0 | 4.0 | 0.00 | 0.00 | 0.00 | 79 | 1013.6 |
| 20260502211104 | 64 | 167 | 3.0 | 4.0 | 0.00 | 0.00 | 0.00 | 77 | 1013.6 |
| 20260502210604 | 63 | 230 | 2.0 | 5.0 | 0.00 | 0.00 | 0.00 | 77 | 1013.5 |
| 20260502210104 | 63 | 360 | 2.0 | 5.0 | 0.00 | 0.00 | 0.00 | 79 | 1013.9 |
| 20260502205604 | 63 | 360 | 5.0 | 5.0 | 0.00 | 0.00 | 0.00 | 77 | 1013.9 |
| 20260502204904 | 63 | 360 | 3.0 | 8.0 | 0.00 | 0.00 | 0.00 | 75 | 1013.4 |
| 20260502204404 | 63 | 360 | 2.0 | 8.0 | 0.00 | 0.00 | 0.00 | 74 | 1013.7 |
| 20260502203904 | 63 | 221 | 6.0 | 6.0 | 0.00 | 0.00 | 0.00 | 74 | 1013.8 |
| 20260502203405 | 64 | 284 | 1.0 | 6.0 | 0.00 | 0.00 | 0.00 | 74 | 1014.1 |
| 20260502202904 | 64 | 286 | 1.0 | 6.0 | 0.00 | 0.00 | 0.00 | 74 | 1014.0 |
| 20260502202404 | 64 | 232 | 1.0 | 3.0 | 0.00 | 0.00 | 0.00 | 74 | 1014.3 |
| 20260502201904 | 63 | 153 | 1.0 | 3.0 | 0.00 | 0.00 | 0.00 | 78 | 1014.3 |
| 20260502201404 | 63 | 14 | 2.0 | 3.0 | 0.00 | 0.00 | 0.00 | 76 | 1014.3 |
| 20260502200904 | 63 | 11 | 3.0 | 5.0 | 0.00 | 0.00 | 0.00 | 77 | 1014.4 |
| 20260502200404 | 62 | 332 | 2.0 | 5.0 | 0.00 | 0.00 | 0.00 | 76 | 1014.7 |
| 20260502195504 | 62 | 257 | 3.0 | 7.0 | 0.00 | 0.00 | 0.00 | 77 | 1014.8 |
| 20260502195004 | 63 | 224 | 7.0 | 7.0 | 0.00 | 0.00 | 0.00 | 75 | 1014.8 |
| 20260502194504 | 63 | 267 | 2.0 | 4.0 | 0.00 | 0.00 | 0.00 | 76 | 1014.9 |
| 20260502194004 | 62 | 213 | 1.0 | 4.0 | 0.00 | 0.00 | 0.00 | 80 | 1014.7 |
| 20260502193504 | 61 | 150 | 2.0 | 4.0 | 0.00 | 0.00 | 0.00 | 79 | 1015.0 |
| 20260502193004 | 61 | 228 | 4.0 | 4.0 | 0.00 | 0.00 | 0.00 | 79 | 1015.0 |
| 20260502192505 | 61 | 234 | 3.0 | 3.0 | 0.00 | 0.00 | 0.00 | 80 | 1015.2 |
| 20260502191804 | 59 | 75 | 2.0 | 7.0 | 0.00 | 0.00 | 0.00 | 85 | 1015.2 |
| 20260502191205 | 59 | 81 | 5.0 | 7.0 | 0.00 | 0.00 | 0.00 | 81 | 1015.2 |
| 20260502190704 | 59 | 86 | 3.0 | 4.0 | 0.00 | 0.00 | 0.00 | 82 | 1015.2 |
| 20260502190204 | 59 | 57 | 3.0 | 4.0 | 0.00 | 0.00 | 0.00 | 82 | 1015.2 |
| 20260502185704 | 59 | 183 | 1.0 | 4.0 | 0.00 | 0.00 | 0.00 | 82 | 1015.1 |
| 20260502184904 | 59 | 182 | 4.0 | 6.0 | 0.00 | 0.00 | 0.00 | 81 | 1015.3 |
| 20260502184404 | 58 | 189 | 2.0 | 6.0 | 0.00 | 0.00 | 0.00 | 81 | 1015.2 |
| 20260502183904 | 59 | 275 | 2.0 | 3.0 | 0.00 | 0.00 | 0.00 | 80 | 1015.2 |
| 20260502183404 | 59 | 289 | 1.0 | 6.0 | 0.00 | 0.00 | 0.00 | 83 | 1015.1 |
| 20260502182904 | 59 | 9 | 1.0 | 6.0 | 0.00 | 0.00 | 0.00 | 83 | 1015.0 |
| 20260502182404 | 58 | 243 | 6.0 | 6.0 | 0.00 | 0.00 | 0.00 | 83 | 1015.1 |
| 20260502181904 | 58 | 252 | 4.0 | 4.0 | 0.00 | 0.00 | 0.00 | 82 | 1015.2 |
| 20260502181204 | 57 | 10 | 2.0 | 5.0 | 0.00 | 0.00 | 0.00 | 86 | 1015.3 |
| 20260502180504 | 55 | 51 | 1.0 | 5.0 | 0.00 | 0.00 | 0.00 | 87 | 1015.3 |
| 20260502170204 | 53 | 242 | 4.0 | 4.0 | 0.00 | 0.00 | 0.00 | 92 | 1016.1 |
| 20260502164204 | 52 | 188 | 3.0 | 3.0 | 0.00 | 0.00 | 0.00 | 93 | 1015.7 |
| 20260502163704 | 52 | 84 | 1.0 | 3.0 | 0.00 | 0.00 | 0.00 | 93 | 1015.8 |
| 20260502163204 | 52 | 288 | 1.0 | 3.0 | 0.00 | 0.00 | 0.00 | 92 | 1015.7 |
| 20260502162704 | 52 | 360 | 0.0 | 4.0 | 0.00 | 0.00 | 0.00 | 93 | 1015.5 |
| 20260502162004 | 51 | 360 | 2.0 | 4.0 | 0.00 | 0.00 | 0.00 | 92 | 1015.4 |
| 20260502161103 | 51 | 360 | 1.0 | 2.0 | 0.00 | 0.00 | 0.00 | 92 | 1015.9 |
| 20260502160604 | 51 | 360 | 0.0 | 1.0 | 0.00 | 0.00 | 0.00 | 92 | 1016.1 |
| 20260502151704 | 50 | 360 | 2.0 | 5.0 | 0.00 | 0.00 | 0.00 | 94 | 1016.3 |
| 20260502151204 | 50 | 178 | 1.0 | 3.0 | 0.00 | 0.00 | 0.00 | 94 | 1016.3 |
| 20260502150704 | 50 | 360 | 1.0 | 3.0 | 0.00 | 0.00 | 0.00 | 94 | 1016.2 |
| 20260502130304 | 48 | 177 | 0.0 | 1.0 | 0.00 | 0.00 | 0.00 | 96 | 1015.7 |
| 20260502123804 | 48 | 177 | 0.0 | 2.0 | 0.00 | 0.00 | 0.00 | 96 | 1016.1 |
| 20260502123304 | 48 | 360 | 2.0 | 2.0 | 0.00 | 0.00 | 0.00 | 96 | 1016.1 |
| 20260502122804 | 48 | 177 | 2.0 | 2.0 | 0.00 | 0.00 | 0.00 | 96 | 1016.0 |
| 20260502122306 | 48 | 360 | 0.0 | 2.0 | 0.00 | 0.00 | 0.00 | 96 | 1016.1 |
| 20260502121804 | 48 | 360 | 2.0 | 2.0 | 0.00 | 0.00 | 0.00 | 96 | 1016.1 |
| 20260502121304 | 48 | 360 | 0.0 | 2.0 | 0.00 | 0.00 | 0.00 | 96 | 1016.1 |
| 20260502120804 | 48 | 360 | 1.0 | 2.0 | 0.00 | 0.00 | 0.00 | 96 | 1016.0 |
| 20260502120104 | 48 | 360 | 1.0 | 2.0 | 0.00 | 0.00 | 0.00 | 96 | 1015.9 |
| 20260502115604 | 48 | 360 | 0.0 | 2.0 | 0.00 | 0.00 | 0.00 | 96 | 1015.9 |
| 20260502114904 | 48 | 360 | 0.0 | 1.0 | 0.00 | 0.00 | 0.00 | 96 | 1016.1 |
| 20260502113904 | 48 | 360 | 1.0 | 1.0 | 0.00 | 0.00 | 0.00 | 96 | 1015.8 |
| 20260502113404 | 48 | 360 | 1.0 | 2.0 | 0.00 | 0.00 | 0.00 | 96 | 1015.9 |
| 20260502112904 | 48 | 360 | 1.0 | 3.0 | 0.00 | 0.00 | 0.00 | 96 | 1015.9 |
| 20260502112404 | 48 | 360 | 2.0 | 4.0 | 0.00 | 0.00 | 0.00 | 96 | 1015.8 |
| 20260502111904 | 48 | 360 | 2.0 | 4.0 | 0.00 | 0.00 | 0.00 | 96 | 1015.9 |
| 20260502111404 | 48 | 360 | 3.0 | 3.0 | 0.00 | 0.00 | 0.00 | 97 | 1015.8 |
| 20260502110704 | 48 | 360 | 1.0 | 3.0 | 0.00 | 0.00 | 0.00 | 97 | 1016.0 |
| 20260502110204 | 48 | 360 | 0.0 | 3.0 | 0.00 | 0.00 | 0.00 | 97 | 1016.1 |
| 20260502105704 | 48 | 360 | 2.0 | 3.0 | 0.00 | 0.00 | 0.00 | 97 | 1015.9 |
| 20260502105204 | 47 | 360 | 2.0 | 3.0 | 0.00 | 0.00 | 0.00 | 97 | 1016.1 |
| 20260502104704 | 47 | 360 | 1.0 | 3.0 | 0.00 | 0.00 | 0.00 | 98 | 1016.1 |
| 20260502104204 | 47 | 360 | 2.0 | 3.0 | 0.00 | 0.00 | 0.00 | 98 | 1016.2 |
| 20260502103304 | 47 | 360 | 0.0 | 2.0 | 0.00 | 0.00 | 0.00 | 97 | 1016.3 |
| 20260502102804 | 47 | 360 | 2.0 | 2.0 | 0.00 | 0.00 | 0.00 | 97 | 1016.3 |
| 20260502102104 | 47 | 360 | 0.0 | 1.0 | 0.00 | 0.00 | 0.00 | 97 | 1016.6 |
| 20260502101604 | 47 | 360 | 0.0 | 1.0 | 0.00 | 0.00 | 0.00 | 97 | 1016.6 |
| 20260502101104 | 47 | 360 | 0.0 | 1.0 | 0.00 | 0.00 | 0.00 | 97 | 1016.7 |
| 20260502100604 | 47 | 360 | 0.0 | 2.0 | 0.00 | 0.00 | 0.00 | 97 | 1016.8 |
| 20260502100104 | 47 | 360 | 0.0 | 3.0 | 0.00 | 0.00 | 0.00 | 97 | 1016.8 |
| 20260502091304 | 46 | 360 | 1.0 | 2.0 | 0.00 | 0.00 | 0.00 | 98 | 1017.0 |
| 20260502090604 | 46 | 360 | 1.0 | 1.0 | 0.00 | 0.00 | 0.00 | 97 | 1017.2 |
| 20260502090104 | 45 | 360 | 0.0 | 0.0 | 0.00 | 0.00 | 0.00 | 97 | 1017.1 |
| 20260502071004 | 46 | 360 | 0.0 | 0.0 | 0.00 | 0.00 | 0.00 | 96 | 1017.6 |
| 20260502070304 | 46 | 360 | 0.0 | 0.0 | 0.00 | 0.00 | 0.00 | 95 | 1017.4 |
| 20260502065804 | 46 | 360 | 0.0 | 0.0 | 0.00 | 0.00 | 0.00 | 95 | 1017.4 |
| 20260502065306 | 46 | 360 | 0.0 | 0.0 | 0.00 | 0.00 | 0.00 | 95 | 1017.5 |
| 20260502064804 | 46 | 360 | 0.0 | 1.0 | 0.00 | 0.00 | 0.00 | 95 | 1017.6 |
| 20260502064304 | 46 | 360 | 0.0 | 1.0 | 0.00 | 0.00 | 0.00 | 95 | 1017.5 |
| 20260502063804 | 46 | 360 | 0.0 | 1.0 | 0.00 | 0.00 | 0.00 | 94 | 1017.4 |
| 20260502063304 | 46 | 360 | 1.0 | 1.0 | 0.00 | 0.00 | 0.00 | 95 | 1017.5 |
| 20260502062804 | 46 | 360 | 0.0 | 0.0 | 0.00 | 0.00 | 0.00 | 95 | 1017.6 |
| 20260502062306 | 47 | 360 | 0.0 | 0.0 | 0.00 | 0.00 | 0.00 | 95 | 1017.5 |
| 20260502061804 | 47 | 360 | 0.0 | 0.0 | 0.00 | 0.00 | 0.00 | 94 | 1017.6 |
| 20260502061304 | 47 | 360 | 0.0 | 0.0 | 0.00 | 0.00 | 0.00 | 94 | 1017.5 |
| 20260502060804 | 47 | 360 | 0.0 | 1.0 | 0.00 | 0.00 | 0.00 | 94 | 1017.5 |
| 20260502060304 | 47 | 360 | 0.0 | 1.0 | 0.00 | 0.00 | 0.00 | 93 | 1017.4 |
| 20260502055805 | 47 | 360 | 0.0 | 1.0 | 0.00 | 0.00 | 0.00 | 93 | 1017.4 |
| 20260502055305 | 47 | 360 | 0.0 | 1.0 | 0.00 | 0.00 | 0.00 | 93 | 1017.4 |
| 20260502054804 | 48 | 360 | 0.0 | 1.0 | 0.00 | 0.00 | 0.00 | 92 | 1017.4 |
| 20260502054304 | 48 | 360 | 1.0 | 1.0 | 0.00 | 0.00 | 0.00 | 92 | 1017.4 |
| 20260502053804 | 48 | 180 | 0.0 | 1.0 | 0.00 | 0.00 | 0.00 | 92 | 1017.3 |
| 20260502053304 | 48 | 180 | 0.0 | 1.0 | 0.00 | 0.00 | 0.00 | 91 | 1017.3 |
| 20260502052804 | 49 | 180 | 0.0 | 2.0 | 0.00 | 0.00 | 0.00 | 92 | 1017.3 |
| 20260502051505 | 49 | 179 | 1.0 | 1.0 | 0.00 | 0.00 | 0.00 | 92 | 1017.3 |
| 20260502051004 | 49 | 179 | 1.0 | 2.0 | 0.00 | 0.00 | 0.00 | 92 | 1017.2 |
| 20260502050504 | 49 | 179 | 1.0 | 3.0 | 0.00 | 0.00 | 0.00 | 91 | 1017.3 |
| 20260502050004 | 49 | 179 | 1.0 | 3.0 | 0.00 | 0.00 | 0.00 | 91 | 1017.2 |
| 20260502045504 | 50 | 175 | 3.0 | 3.0 | 0.00 | 0.00 | 0.00 | 90 | 1017.0 |
| 20260502044804 | 50 | 178 | 1.0 | 4.0 | 0.00 | 0.00 | 0.00 | 90 | 1017.0 |
| 20260502044304 | 50 | 178 | 1.0 | 4.0 | 0.00 | 0.00 | 0.00 | 90 | 1017.0 |
| 20260502043804 | 50 | 167 | 4.0 | 5.0 | 0.00 | 0.00 | 0.00 | 90 | 1017.0 |
| 20260502043104 | 50 | 161 | 5.0 | 5.0 | 0.00 | 0.00 | 0.00 | 90 | 1017.0 |
| 20260502042604 | 50 | 173 | 1.0 | 6.0 | 0.00 | 0.00 | 0.00 | 90 | 1017.1 |
| 20260502042104 | 51 | 158 | 1.0 | 6.0 | 0.00 | 0.00 | 0.00 | 89 | 1017.0 |
| 20260502041604 | 51 | 360 | 1.0 | 4.0 | 0.00 | 0.00 | 0.00 | 89 | 1017.0 |
| 20260502041104 | 51 | 360 | 4.0 | 5.0 | 0.00 | 0.00 | 0.00 | 89 | 1016.9 |
| 20260502040604 | 51 | 360 | 1.0 | 5.0 | 0.00 | 0.00 | 0.00 | 89 | 1016.9 |
| 20260502040104 | 51 | 360 | 5.0 | 5.0 | 0.00 | 0.00 | 0.00 | 89 | 1016.8 |
| 20260502035604 | 51 | 360 | 2.0 | 5.0 | 0.00 | 0.00 | 0.00 | 89 | 1016.9 |
| 20260502035104 | 52 | 360 | 4.0 | 4.0 | 0.00 | 0.00 | 0.00 | 88 | 1016.8 |
| 20260502034604 | 52 | 360 | 3.0 | 4.0 | 0.00 | 0.00 | 0.00 | 88 | 1016.7 |
| 20260502034104 | 52 | 360 | 2.0 | 6.0 | 0.00 | 0.00 | 0.00 | 87 | 1016.6 |
| 20260502033604 | 52 | 181 | 4.0 | 6.0 | 0.00 | 0.00 | 0.00 | 87 | 1016.6 |
| 20260502033104 | 52 | 170 | 4.0 | 6.0 | 0.00 | 0.00 | 0.00 | 87 | 1016.7 |
| 20260502032404 | 53 | 187 | 3.0 | 5.0 | 0.00 | 0.00 | 0.00 | 86 | 1016.5 |
| 20260502031904 | 53 | 360 | 5.0 | 5.0 | 0.00 | 0.00 | 0.00 | 85 | 1016.5 |
| 20260502031404 | 54 | 360 | 2.0 | 4.0 | 0.00 | 0.00 | 0.00 | 85 | 1016.4 |
| 20260502030704 | 54 | 360 | 1.0 | 4.0 | 0.00 | 0.00 | 0.00 | 84 | 1016.4 |
| 20260502030204 | 54 | 360 | 3.0 | 3.0 | 0.00 | 0.00 | 0.00 | 83 | 1016.3 |
| 20260502025504 | 54 | 360 | 2.0 | 5.0 | 0.00 | 0.00 | 0.00 | 83 | 1016.3 |
| 20260502025005 | 55 | 360 | 4.0 | 9.0 | 0.00 | 0.00 | 0.00 | 82 | 1016.2 |
| 20260502024504 | 55 | 360 | 4.0 | 9.0 | 0.00 | 0.00 | 0.00 | 82 | 1016.0 |
| 20260502024004 | 56 | 360 | 2.0 | 7.0 | 0.00 | 0.00 | 0.00 | 81 | 1016.1 |
| 20260502023504 | 56 | 360 | 4.0 | 7.0 | 0.00 | 0.00 | 0.00 | 80 | 1016.0 |
| 20260502023004 | 57 | 144 | 3.0 | 8.0 | 0.00 | 0.00 | 0.00 | 79 | 1015.9 |
| 20260502022504 | 57 | 165 | 1.0 | 8.0 | 0.00 | 0.00 | 0.00 | 79 | 1015.8 |
| 20260502021804 | 58 | 360 | 4.0 | 5.0 | 0.00 | 0.00 | 0.00 | 78 | 1015.8 |
| 20260502021304 | 58 | 360 | 5.0 | 5.0 | 0.00 | 0.00 | 0.00 | 77 | 1015.7 |
| 20260502020604 | 58 | 360 | 4.0 | 5.0 | 0.00 | 0.00 | 0.00 | 77 | 1015.6 |
| 20260502020104 | 58 | 360 | 5.0 | 8.0 | 0.00 | 0.00 | 0.00 | 78 | 1015.4 |
| 20260502015204 | 59 | 360 | 3.0 | 9.0 | 0.00 | 0.00 | 0.00 | 79 | 1015.4 |
| 20260502014504 | 59 | 360 | 4.0 | 8.0 | 0.00 | 0.00 | 0.00 | 80 | 1015.4 |
| 20260502014004 | 59 | 360 | 5.0 | 8.0 | 0.00 | 0.00 | 0.00 | 79 | 1015.4 |
| 20260502013504 | 60 | 360 | 8.0 | 8.0 | 0.00 | 0.00 | 0.00 | 79 | 1015.4 |
| 20260502013004 | 60 | 360 | 2.0 | 6.0 | 0.00 | 0.00 | 0.00 | 78 | 1015.5 |
| 20260502012504 | 60 | 360 | 6.0 | 9.0 | 0.00 | 0.00 | 0.00 | 78 | 1015.5 |
| 20260502012004 | 60 | 360 | 5.0 | 9.0 | 0.00 | 0.00 | 0.00 | 77 | 1015.5 |